P/2006 S4 ( Christensen )

Japanese version
Home page
Updated on April 21, 2007

---------------------------------------------------------------------

* Profile

Discovery Date September 22, 2006
Magnitude 16.8 mag
Discoverer E. J. Christensen (Catalina Sky Survey)

* Orbital Elements

The following orbital elements are taken from MPC 57948:

Epoch 2006 May 25.0 TT = JDT 2453880.5
T 2006 June 1.6951 TT                                   MPC
q   3.068292             (2000.0)            P               Q
n   0.0632917      Peri.  305.7240      +0.8402615      +0.3904836
a   6.235981       Node    36.1357      +0.0585928      +0.6242956
e   0.507970       Incl.   39.6320      -0.5390061      +0.6765926
P  15.6
From 129 observations 2006 Sept. 22-Oct. 28, mean residual 0".7.

* Finding Charts

* Magnitudes Graph

        m1 = 10.5 + 5 log d + 10.0 log r

---------------------------------------------------------------------

The orbital elements are published at the MPC Ephemerides and Orbital Elements.
The charts are made with StellaNavigator Ver.2.0 for Windows (AstroArts / ASCII).
The magnitudes graphs are made with Comet for Windows.

---------------------------------------------------------------------

Copyright(C) Seiichi Yoshida (comet@aerith.net). All rights reserved.